Wind_Speed
10 9 9 10 12 13 11 9 9 9 10 10 11 12 13 13 14 15 16 16 16 16 17 17 18 18 19 20 20 21 21 21 21 21 21 20 20 20 19 19 19 19 18 18 18 18 18 19 19 19 19 19 19 19 18 18 18 18 17 16 16 16 16 15 15 15 15 14 13
10 9 9 10 12 11 10 10 11 11 11 12 13 13 14 15 16 16 16 16 16 17 17 18 18 19 20 21 21 22 22 22 22 22 21 21 20 20 20 20 20 20 19 18 18 18 19 19 19 20 20 20 20 20 19 19 18 18 17 16 16 15 15 14 14 14 14 15 15
10 10 10 10 11 11 12 12 13 13 14 14 14 15 15 16 16 16 16 16 17 17 18 19 20 20 21 22 22 22 22 22 22 22 21 21 20 20 20 20 20 20 20 19 19 20 20 20 20 21 21 22 21 21 20 19 19 18 17 16 16 15 14 13 13 12 13 14 16
9 9 9 10 11 12 13 14 14 15 15 15 16 16 16 16 16 17 17 17 18 18 19 20 21 21 22 22 22 23 22 22 22 22 22 21 21 21 20 20 20 20 20 20 21 21 21 22 22 23 23 23 22 22 21 20 20 18 17 15 15 14 13 12 13 13 14 15 17
9 10 10 12 13 14 14 15 15 15 15 15 15 16 16 16 16 17 18 18 19 20 20 21 21 21 22 22 22 22 22 22 22 22 21 21 21 21 21 20 20 21 21 21 22 22 23 24 24 24 24 23 23 22 22 21 20 18 16 15 15 14 13 14 15 17 19 22 23
10 11 13 14 16 16 16 15 15 15 15 16 16 16 17 17 17 18 19 19 20 20 21 21 21 21 21 21 22 22 22 22 22 22 22 21 21 21 20 20 20 21 22 22 23 24 24 25 25 25 24 24 23 23 22 20 19 18 16 15 15 15 17 19 21 22 24 26 27
12 14 16 18 18 18 17 16 16 16 17 17 17 17 18 18 19 19 19 19 20 20 21 21 21 21 21 22 22 22 22 22 22 22 22 21 21 20 20 21 22 22 23 23 24 24 25 25 25 25 25 24 24 23 22 20 19 18 17 16 18 20 23 24 25 26 27 28 27
16 17 19 19 19 18 17 17 18 18 19 19 19 19 19 20 20 19 19 20 20 20 21 21 21 22 22 22 23 23 23 22 22 22 21 21 21 21 21 22 23 23 24 24 24 24 24 24 24 25 25 24 24 24 23 21 20 19 19 21 24 26 28 27 28 29 28 27 24
18 19 20 19 18 18 17 18 18 19 19 20 20 20 20 20 20 19 19 20 20 21 21 22 23 23 23 23 23 22 22 22 21 21 21 21 22 22 22 23 23 23 23 23 23 23 23 23 23 24 24 25 24 22 21 21 21 21 23 26 29 30 30 30 30 29 27 24 20
19 19 19 18 18 17 17 18 19 19 19 20 20 20 20 19 19 19 20 20 21 22 22 23 23 23 23 23 22 22 21 20 19 19 19 20 21 22 22 22 21 21 21 21 21 20 20 20 22 24 26 27 24 21 19 20 20 22 25 29 31 32 32 32 30 26 23 19 16
18 18 18 17 17 18 18 19 19 20 20 20 20 20 19 19 19 19 20 21 22 23 23 23 23 23 23 23 22 22 20 19 18 17 18 19 19 19 19 18 18 19 20 21 20 19 18 19 21 24 27 27 24 21 19 19 20 21 25 28 30 30 30 28 25 21 17 14 12
17 17 17 17 17 18 19 19 19 19 19 19 19 19 19 19 19 20 21 22 23 24 24 23 23 22 22 22 22 20 19 18 18 17 17 16 16 16 15 16 17 19 21 22 21 21 21 21 23 25 27 27 26 24 22 21 21 22 23 24 26 25 23 21 19 16 13 11 11
17 17 17 17 18 18 19 19 19 19 19 19 19 19 19 19 20 20 21 23 23 23 23 22 21 21 21 21 20 19 18 18 18 17 15 14 14 14 16 17 19 20 22 23 24 25 26 27 28 29 30 29 28 27 25 25 24 24 23 23 22 21 19 18 16 14 12 12 12
17 18 18 18 18 18 18 18 18 18 18 18 18 18 19 20 20 20 21 22 22 21 20 20 20 19 19 18 18 17 17 16 16 15 14 14 14 16 18 20 21 23 25 27 29 30 31 32 32 32 30 29 28 27 27 27 27 26 25 23 22 20 18 17 16 15 14 14 14
18 18 18 18 17 17 17 17 17 17 17 17 18 18 19 19 19 19 19 19 19 18 17 17 17 17 16 16 16 16 15 15 14 14 15 16 18 20 22 25 27 28 30 31 32 33 33 33 32 30 28 26 26 27 27 27 27 26 25 23 22 21 19 18 17 17 16 16 16
18 18 18 17 16 16 16 17 16 17 17 17 18 18 18 18 18 17 17 16 16 16 16 15 15 16 16 16 15 15 15 14 15 16 18 21 23 26 28 29 30 31 32 32 33 33 32 31 30 29 27 27 27 28 28 27 26 24 22 21 21 21 21 21 20 18 17 16 16
18 18 18 17 16 16 16 16 16 17 17 17 18 17 17 16 16 16 15 16 16 17 17 16 16 16 16 16 16 16 16 17 18 20 23 25 27 28 29 29 29 29 29 29 29 29 29 29 29 29 29 29 29 29 29 29 27 24 21 18 16 17 17 18 17 16 15 15 16
19 18 18 17 17 17 17 17 17 16 16 16 17 16 15 15 16 16 16 16 16 17 17 17 17 17 16 17 18 18 20 21 23 25 26 26 27 27 26 26 26 26 26 26 26 27 27 27 27 27 28 28 29 30 30 30 29 26 22 18 15 13 13 13 12 12 12 14 15
19 19 18 18 18 18 18 17 16 17 17 17 16 15 15 16 16 17 16 16 15 16 17 17 17 17 17 18 20 22 23 24 24 25 25 25 25 25 25 25 25 24 24 24 24 24 24 24 24 24 24 24 25 26 26 27 26 25 22 19 17 15 13 12 10 10 10 11 12
20 20 19 19 18 18 17 16 17 17 17 16 15 14 14 15 16 15 15 15 15 16 16 16 16 15 16 18 20 21 21 21 22 22 22 23 23 23 24 24 23 23 23 22 22 22 22 21 21 21 21 21 21 22 22 22 21 21 20 19 18 17 16 14 13 12 12 12 12
21 20 19 19 18 18 17 17 18 17 16 16 14 14 15 15 15 15 14 14 15 15 15 15 14 15 16 16 16 16 16 17 17 18 18 19 19 20 21 22 22 22 21 21 21 21 21 21 21 21 21 21 22 22 22 22 22 22 21 21 20 19 19 18 18 17 16 16 16
21 20 19 18 18 17 17 16 15 15 15 16 16 16 16 15 14 14 14 14 14 14 13 13 13 14 14 13 14 14 14 14 15 15 16 16 17 18 19 19 20 19 19 20 20 20 20 20 21 21 22 22 22 23 23 24 24 24 24 24 24 24 24 23 23 22 22 21 20
21 20 19 19 18 18 17 15 15 16 17 16 16 15 14 13 13 13 13 13 12 12 12 12 12 12 13 13 14 14 14 14 14 14 15 16 16 17 17 17 17 17 17 18 18 18 19 19 20 21 21 21 21 22 22 23 24 24 25 25 26 26 26 26 26 25 24 24 23
21 21 21 20 19 18 18 17 16 15 14 13 13 13 13 12 11 10 10 10 11 11 11 12 12 13 14 15 14 14 14 14 14 14 15 16 16 15 15 15 15 15 15 17 18 18 18 19 19 20 20 20 21 21 21 21 22 22 23 23 24 24 24 24 24 24 23 23 23
21 21 21 19 18 18 17 16 15 14 12 11 11 10 10 10 10 9 9 9 10 11 11 12 12 14 16 16 14 13 13 13 13 13 14 14 14 14 14 14 14 14 15 17 19 19 19 18 19 19 19 20 20 20 20 21 21 21 21 21 21 21 21 22 22 22 21 21 21
20 20 19 18 18 17 16 14 11 10 10 10 10 10 10 9 10 10 9 9 10 11 12 12 12 14 15 14 13 12 12 12 12 12 13 13 14 14 15 14 14 14 15 17 19 20 20 20 20 20 20 20 20 20 20 21 21 21 20 19 19 19 19 20 20 20 20 20 19
19 19 18 18 16 13 11 10 10 9 10 9 9 9 10 10 10 10 11 11 11 11 11 11 11 12 13 12 12 12 12 12 12 12 12 13 13 14 15 14 14 14 15 18 20 21 22 22 22 21 21 21 21 21 21 21 21 20 20 19 18 18 19 19 19 20 19 19 19
19 18 17 15 13 11 11 10 10 9 9 9 9 9 9 10 11 11 11 11 11 11 12 12 12 12 12 12 13 13 13 13 12 12 12 12 12 13 14 14 14 15 16 19 21 22 23 23 24 24 23 23 22 22 22 21 20 19 19 18 18 18 19 19 19 19 19 19 19
17 15 13 13 13 14 14 12 10 9 8 8 9 9 9 10 11 12 12 12 12 12 12 12 12 13 13 13 14 14 13 13 12 12 12 13 13 13 13 14 15 15 16 18 20 22 23 24 25 25 25 25 24 23 23 21 20 19 18 18 18 19 19 19 19 19 20 20 19
14 13 12 13 16 16 14 10 8 7 8 8 9 9 10 11 12 12 13 12 12 12 12 13 13 14 14 14 14 14 14 13 13 12 12 13 13 14 14 15 15 15 16 18 20 21 23 24 25 26 26 26 25 25 24 23 22 21 20 19 19 19 20 20 20 20 20 20 20
12 12 15 17 17 15 11 8 7 7 7 8 9 10 11 12 13 13 13 13 12 12 13 13 14 15 15 15 15 14 14 13 13 13 13 13 13 14 14 15 15 15 16 18 20 21 23 24 25 26 26 26 26 25 25 24 24 24 23 21 21 20 21 21 21 21 21 21 21
14 17 20 20 17 12 8 7 7 7 8 9 10 11 12 12 13 13 13 13 12 13 14 14 15 15 16 15 15 15 14 14 13 13 14 14 14 14 14 15 15 16 18 19 20 22 23 25 26 26 26 26 26 25 25 25 25 24 23 22 21 21 21 21 21 21 21 21 21
19 21 21 18 12 8 6 6 7 8 9 10 11 12 12 13 13 14 13 13 13 14 14 15 16 16 16 16 15 15 14 14 14 14 14 14 14 14 14 15 14 15 18 19 21 23 24 25 26 26 26 26 26 26 25 25 25 24 22 21 21 21 21 21 21 21 21 21 21
22 22 19 14 8 6 6 7 8 9 10 11 12 12 13 14 14 14 14 14 14 15 16 16 16 16 16 16 15 15 15 14 14 15 15 15 15 14 15 15 13 15 18 20 22 24 25 26 26 26 26 26 26 26 26 25 24 23 21 21 21 21 21 21 21 21 21 21 20
21 19 15 10 7 6 7 8 9 10 11 12 13 13 14 14 14 15 15 15 16 16 17 17 17 16 16 16 15 15 15 15 15 15 15 15 15 15 15 15 14 15 18 20 23 25 26 26 26 26 26 26 26 26 26 25 24 22 21 20 20 20 20 20 20 20 20 19 19
18 16 13 9 7 6 8 9 10 11 12 13 13 14 14 15 15 15 16 16 17 17 17 17 17 17 16 16 16 15 15 16 16 16 16 16 16 16 16 16 15 15 17 20 23 25 26 26 26 26 26 26 26 26 25 25 23 22 20 19 19 19 19 19 19 19 19 18 18
18 15 11 8 7 8 9 10 11 12 12 13 14 14 15 16 16 17 17 17 17 18 18 17 17 17 16 16 16 16 16 16 16 16 16 16 16 17 17 17 18 18 19 21 23 25 25 26 26 26 26 25 25 25 25 24 22 20 19 19 18 18 18 18 18 18 18 18 19
17 13 9 7 8 9 10 11 11 12 13 13 14 15 16 17 17 18 18 18 18 18 18 18 18 17 17 17 17 17 17 17 17 16 16 16 17 17 18 20 22 23 23 22 23 23 24 25 25 25 25 25 24 24 23 22 20 19 19 19 18 18 18 18 18 18 19 19 20
13 9 7 8 9 10 11 11 11 12 13 14 15 16 17 18 18 18 18 18 18 18 18 18 18 18 17 17 17 17 18 18 17 17 17 17 18 19 22 24 24 24 23 21 21 22 23 25 25 25 24 23 23 22 21 20 19 19 19 19 19 19 18 18 18 18 19 20 21
8 7 7 8 9 10 11 11 11 12 13 14 16 17 18 18 18 19 19 18 18 18 18 18 18 18 18 18 18 18 18 19 19 18 18 19 20 22 24 24 24 22 20 19 18 20 23 24 25 25 24 23 22 22 20 19 19 19 20 19 19 18 18 18 18 18 19 19 20
7 7 7 8 9 10 10 11 12 13 14 15 17 18 18 18 19 19 19 19 19 19 18 18 18 18 18 18 19 19 19 20 20 20 19 20 21 22 22 22 20 19 18 17 18 20 23 25 26 25 24 23 23 22 21 20 19 19 20 20 19 19 19 19 19 19 19 19 20
Wind_Direction
303 296 292 294 304 309 309 302 300 301 302 304 303 302 303 304 305 305 306 307 307 308 308 308 308 308 307 307 306 306 304 303 300 297 293 289 286 283 280 279 277 277 276 277 279 281 284 287 289 291 291 291 290 288 286 284 281 280 277 274 271 268 266 263 260 259 261 261 257
295 291 291 296 306 307 303 300 299 300 301 303 302 303 303 304 304 305 305 306 306 307 308 308 308 307 307 306 305 304 303 301 299 297 293 290 286 284 282 281 280 280 279 280 281 284 286 288 289 289 289 289 288 287 285 283 281 278 276 273 270 268 266 264 262 261 261 260 256
292 291 293 297 299 299 298 298 298 298 300 301 302 302 303 304 304 304 305 305 306 307 307 307 307 307 307 306 304 303 301 300 298 296 293 290 287 285 284 283 282 281 281 282 285 286 288 289 289 289 289 288 286 285 283 280 277 274 272 270 270 269 268 266 262 259 258 260 262
291 294 298 299 300 299 298 298 297 298 299 300 301 302 303 304 303 303 304 304 305 306 306 306 306 306 306 305 304 303 301 299 298 296 293 291 289 287 285 283 281 281 282 284 286 287 288 289 289 289 288 287 285 282 279 276 274 271 268 267 267 266 264 261 256 256 262 269 275
290 294 299 302 303 302 300 299 298 299 300 301 302 303 303 303 303 303 304 304 305 305 305 305 305 306 306 306 305 304 302 300 299 297 295 293 290 288 286 284 282 282 283 285 286 287 288 289 289 288 287 285 282 279 276 274 271 267 263 261 261 258 254 252 254 262 271 278 281
292 297 301 303 303 302 300 299 298 299 300 301 302 303 303 303 303 303 304 305 306 306 306 306 306 306 306 306 306 305 303 302 300 299 297 294 291 289 286 285 284 284 285 286 287 287 288 289 289 288 285 282 279 276 273 270 266 261 257 254 252 251 251 254 261 270 278 282 283
297 300 302 302 301 300 298 297 298 298 300 301 302 302 302 303 303 304 304 306 307 308 308 308 308 307 307 307 306 305 303 301 300 299 297 294 292 289 287 286 286 286 286 287 287 288 288 289 288 287 285 282 277 272 268 264 259 255 252 251 251 254 257 261 268 276 282 285 285
299 301 301 301 300 298 297 297 297 298 299 300 301 302 302 303 303 304 305 307 309 310 310 310 309 308 307 306 305 304 302 300 299 297 296 294 291 290 289 288 288 288 288 287 287 288 288 288 287 286 285 282 276 269 263 256 253 251 251 253 257 260 263 266 274 280 284 286 284
300 300 300 300 298 297 297 297 298 298 299 299 301 301 302 302 303 305 306 308 310 311 312 311 310 309 307 306 305 303 301 299 297 296 295 294 292 291 291 290 290 289 289 289 288 288 289 288 286 285 285 281 274 265 255 249 248 249 253 256 260 264 268 273 279 283 284 282 277
300 300 300 299 298 298 298 298 298 298 299 299 301 302 303 303 304 306 308 310 312 313 313 312 310 309 308 307 305 304 302 299 297 296 296 295 294 294 293 293 293 292 291 290 289 290 292 290 285 283 283 282 277 269 260 257 252 253 257 262 265 270 274 278 280 280 278 273 266
300 300 300 299 299 299 299 299 299 299 299 300 302 303 305 306 308 310 312 313 313 313 312 311 310 309 308 307 306 305 303 300 299 298 298 299 299 299 299 298 295 290 287 288 289 293 296 293 286 283 283 283 280 277 274 272 267 266 267 268 270 272 274 275 274 271 266 260 252
301 300 300 299 300 300 300 300 300 300 301 302 304 306 309 310 312 313 314 314 314 313 312 311 311 310 309 308 307 305 303 302 301 301 302 304 305 304 302 298 290 285 283 284 287 290 292 292 290 288 286 284 282 281 282 282 279 275 272 270 269 268 266 264 261 257 252 248 244
301 300 300 300 300 300 300 300 301 302 304 306 307 310 312 312 313 314 314 313 312 312 312 311 311 310 309 308 307 306 304 303 302 302 303 305 306 299 293 291 287 285 284 284 285 286 288 291 294 294 291 286 283 284 286 287 284 278 271 265 260 257 254 251 248 245 242 240 239
301 300 300 300 300 300 301 302 304 305 307 309 311 312 313 313 313 313 313 313 313 314 314 313 313 312 311 311 309 308 306 304 303 303 302 301 298 293 288 287 286 286 286 285 285 287 289 293 296 296 293 287 284 284 285 285 283 278 270 262 255 250 246 242 241 239 236 234 234
300 300 300 300 300 301 303 305 307 309 310 311 313 313 313 313 313 313 314 316 317 318 318 319 318 316 315 314 312 308 305 304 302 300 297 294 292 290 288 288 288 288 288 288 289 290 292 295 296 294 288 283 279 277 278 279 280 279 273 264 255 248 242 237 235 233 232 231 232
300 300 300 300 302 304 306 307 308 309 309 310 310 311 312 313 314 315 317 320 321 321 322 322 322 320 317 314 311 306 303 302 301 297 294 293 292 292 292 293 294 294 294 293 293 294 294 294 292 288 282 276 273 272 274 277 281 284 281 273 263 253 244 237 233 231 232 233 235
300 300 300 300 303 305 306 306 306 306 307 309 310 311 312 313 315 317 319 320 318 317 317 319 319 318 315 310 306 302 299 298 297 297 297 297 298 299 301 301 302 301 301 300 299 298 296 294 290 285 280 276 274 274 276 279 283 286 287 286 279 270 260 251 244 240 240 240 242
300 300 300 300 302 304 304 303 303 305 307 309 310 311 311 313 315 316 317 318 315 312 311 312 313 312 308 305 302 300 299 299 299 300 302 304 306 308 309 310 310 309 308 306 304 301 297 294 291 288 285 282 280 279 279 280 281 282 283 283 285 287 285 279 269 261 255 250 249
300 299 299 300 302 303 302 302 302 304 306 308 309 309 310 312 314 314 314 315 313 310 308 308 309 308 305 303 303 303 304 304 305 307 309 311 313 315 315 315 314 313 311 308 305 302 300 298 296 295 293 291 289 287 284 282 281 279 278 276 276 278 283 286 283 277 269 262 258
299 298 298 299 301 303 302 301 302 303 304 306 308 309 310 312 312 312 311 310 309 309 309 309 310 310 310 310 311 312 313 313 314 315 316 317 318 318 318 317 315 312 310 307 304 302 302 301 302 302 301 299 298 296 293 290 287 285 282 279 276 274 273 274 275 275 274 272 271
298 297 297 299 301 302 302 300 300 300 302 306 306 306 307 307 307 308 308 309 310 313 315 317 318 318 318 320 322 323 323 322 322 321 321 321 321 320 318 317 314 312 310 307 305 304 303 303 303 304 303 302 301 300 299 297 296 294 292 290 287 283 280 278 277 278 278 279 281
298 296 297 299 302 303 302 300 300 300 302 304 304 304 304 303 303 303 305 309 313 317 321 324 324 323 323 324 324 324 323 322 321 320 320 319 319 319 318 318 316 315 314 312 310 309 308 308 308 307 306 305 304 302 301 300 299 298 296 295 294 292 290 288 286 285 285 285 286
298 297 297 300 303 304 303 300 300 302 303 303 304 304 304 303 302 304 307 311 314 317 321 322 321 320 319 319 320 320 319 318 317 316 316 317 318 319 320 320 319 318 317 317 318 318 318 317 316 315 314 313 312 310 308 306 304 303 301 300 298 297 296 294 292 291 290 289 288
297 297 299 301 304 305 305 303 302 304 307 311 309 309 309 309 310 311 313 314 315 317 318 319 317 315 316 318 319 318 317 316 316 315 315 317 318 320 320 320 319 316 314 315 321 325 326 325 323 322 321 319 318 317 315 314 312 310 308 306 305 303 301 300 298 296 295 294 294
296 297 300 302 305 306 307 306 305 308 313 321 325 326 325 323 321 318 317 317 317 318 319 319 315 315 318 322 322 319 318 317 317 316 317 318 318 319 318 318 315 310 308 311 319 325 328 327 326 324 323 321 320 319 317 316 315 314 313 310 308 305 304 303 300 299 297 294 295
297 298 301 303 304 305 306 307 312 314 316 322 328 328 327 326 323 320 319 319 319 320 320 320 316 316 320 323 322 319 318 317 317 316 315 315 314 315 316 315 313 308 306 308 315 322 326 327 327 326 324 322 320 318 317 316 315 314 313 310 306 302 300 300 297 296 296 293 292
299 299 300 302 303 305 308 309 308 311 316 322 326 325 323 322 320 319 318 318 318 319 320 319 317 317 319 320 319 318 317 316 315 314 313 313 312 313 314 314 313 309 305 306 312 318 322 325 326 326 325 323 321 318 316 315 314 313 312 309 303 299 297 295 293 291 290 289 286
299 299 299 301 302 300 299 300 305 312 318 323 323 322 321 320 319 318 317 316 317 319 320 320 319 318 318 318 318 317 316 315 315 315 314 314 313 314 314 314 313 308 303 303 308 313 317 320 322 323 323 322 320 319 316 314 312 310 308 304 299 296 293 291 289 287 286 284 282
298 299 300 299 294 290 290 295 303 313 320 323 322 321 321 320 319 318 316 315 315 317 319 320 320 319 318 317 316 316 315 315 315 315 316 316 316 315 315 314 315 311 304 300 303 308 312 315 318 319 320 319 318 317 315 312 308 304 300 296 294 293 291 289 287 285 284 282 281
297 300 299 294 290 289 292 300 310 317 321 321 321 321 321 321 319 318 316 314 314 315 317 319 320 320 319 317 315 315 314 314 314 315 316 317 317 317 316 317 318 313 304 298 300 304 307 310 312 314 315 316 315 314 312 310 307 303 299 294 292 290 289 287 286 285 283 282 281
292 290 289 289 290 293 299 308 315 318 319 320 321 321 321 321 319 317 315 313 312 313 316 318 320 319 318 316 315 313 313 313 314 315 315 316 316 316 317 318 320 312 301 299 300 302 304 306 308 310 311 312 312 311 309 308 307 305 301 297 292 289 288 287 286 284 283 282 282
280 281 284 289 293 298 305 311 314 316 317 318 319 319 319 319 318 316 315 313 313 313 316 318 319 319 318 316 314 312 312 312 312 313 313 314 315 315 316 319 320 310 301 301 301 301 301 303 305 307 309 310 309 309 308 307 307 306 303 298 292 289 287 286 285 284 283 283 282
277 280 285 291 298 306 311 312 313 315 316 316 317 317 317 316 316 315 314 314 313 314 316 317 318 317 316 314 313 312 311 311 312 312 313 313 313 313 315 319 319 310 302 301 299 299 301 303 305 307 308 309 309 308 308 307 307 306 301 295 292 289 287 286 285 284 283 283 282
279 283 288 297 308 316 314 312 314 315 316 315 314 314 313 313 314 314 314 315 315 315 315 316 316 315 313 312 311 311 311 311 312 313 313 312 312 311 313 317 315 308 302 300 299 301 303 306 308 309 309 309 309 309 309 309 308 305 300 293 290 289 287 286 285 284 284 283 282
282 288 297 312 325 325 314 312 314 315 314 313 312 311 311 312 313 314 315 315 315 315 314 314 313 312 311 311 311 311 311 312 312 313 313 312 310 309 310 312 312 308 305 302 302 304 306 309 310 311 311 310 310 310 310 310 308 305 300 294 291 290 289 288 287 286 285 283 282
291 299 312 328 331 320 310 310 311 311 311 310 310 310 312 314 314 315 316 316 315 314 313 312 312 311 311 311 311 312 312 312 312 312 312 311 310 309 308 308 309 308 306 303 304 307 309 311 312 312 312 312 311 311 311 310 308 305 301 297 294 292 292 291 289 287 286 283 281
303 312 323 329 318 307 305 307 309 308 308 309 311 313 315 316 316 316 316 316 315 313 312 312 311 311 311 311 312 312 312 312 312 311 311 310 310 309 307 306 307 308 307 306 307 310 312 313 314 315 314 314 313 312 311 310 307 304 301 297 295 294 293 291 289 287 285 282 279
312 319 322 313 302 301 304 306 306 307 309 313 315 318 319 318 317 317 316 315 314 312 311 311 311 310 310 311 312 312 312 313 312 311 310 309 309 307 306 306 308 310 311 311 311 312 313 315 316 317 317 316 315 313 311 309 306 302 299 296 295 294 293 291 288 286 284 281 279
317 316 304 295 297 301 303 304 306 310 315 319 320 321 321 320 318 317 315 314 312 311 311 310 310 310 310 311 312 312 313 313 312 310 308 307 306 306 307 309 312 314 315 314 312 311 311 314 317 319 319 319 317 316 313 310 306 302 299 297 296 296 295 293 291 288 286 284 282
312 302 294 295 299 302 304 307 312 318 322 323 324 323 322 321 319 316 314 312 311 310 310 310 309 310 311 312 312 312 313 312 311 309 307 305 305 307 310 312 313 313 313 311 307 305 307 311 316 319 321 321 321 321 318 314 309 305 302 301 299 298 296 294 293 291 289 287 286
296 292 294 298 302 307 311 317 322 325 326 325 324 323 322 320 318 317 315 313 311 310 310 310 310 310 311 311 312 312 312 311 310 308 306 304 305 308 311 312 310 309 307 305 301 299 303 309 315 319 322 323 325 325 324 320 314 309 306 303 300 298 296 294 293 292 291 290 290
Height
1519 1518 1517 1516 1515 1514 1514 1514 1513 1512 1511 1511 1510 1509 1508 1508 1507 1505 1505 1504 1503 1502 1501 1500 1499 1498 1497 1496 1496 1495 1494 1493 1492 1491 1490 1490 1489 1488 1488 1487 1487 1486 1486 1485 1484 1483 1483 1482 1481 1480 1479 1478 1477 1477 1476 1475 1474 1473 1472 1472 1471 1470 1470 1469 1469 1469 1468 1468 1467
1518 1518 1516 1515 1514 1514 1513 1513 1512 1511 1510 1510 1509 1508 1507 1506 1505 1504 1503 1502 1502 1500 1499 1499 1498 1497 1496 1495 1494 1494 1493 1492 1491 1490 1489 1488 1488 1487 1486 1486 1485 1485 1484 1484 1483 1482 1481 1480 1480 1479 1478 1477 1476 1475 1474 1474 1473 1472 1471 1470 1470 1469 1468 1468 1467 1467 1466 1466 1465
1517 1516 1515 1515 1514 1513 1513 1512 1511 1510 1509 1509 1508 1507 1506 1505 1504 1503 1502 1501 1500 1499 1499 1498 1497 1496 1495 1494 1493 1492 1491 1490 1489 1489 1488 1487 1486 1486 1485 1484 1484 1483 1483 1482 1481 1480 1480 1479 1478 1477 1476 1475 1474 1474 1473 1472 1471 1470 1469 1469 1468 1468 1467 1466 1466 1465 1465 1464 1464
1515 1514 1514 1514 1513 1512 1511 1510 1509 1509 1508 1507 1506 1505 1504 1504 1503 1502 1501 1500 1499 1498 1497 1496 1495 1494 1494 1493 1492 1491 1490 1489 1488 1487 1486 1485 1485 1484 1484 1483 1483 1482 1481 1480 1480 1479 1478 1477 1476 1475 1474 1474 1473 1472 1471 1470 1469 1468 1468 1467 1467 1466 1466 1465 1464 1464 1464 1463 1463
1514 1514 1513 1512 1511 1511 1510 1509 1508 1507 1506 1505 1504 1504 1503 1502 1501 1500 1499 1499 1498 1497 1496 1495 1494 1493 1492 1491 1490 1489 1489 1488 1487 1486 1485 1484 1483 1483 1482 1482 1481 1480 1480 1479 1478 1477 1476 1476 1474 1474 1473 1472 1470 1469 1469 1468 1467 1466 1465 1465 1465 1464 1464 1464 1463 1462 1462 1462 1462
1513 1512 1512 1511 1510 1510 1509 1508 1507 1506 1505 1504 1503 1503 1502 1501 1500 1499 1498 1497 1496 1495 1494 1494 1492 1491 1490 1489 1489 1488 1487 1486 1485 1485 1484 1483 1482 1481 1481 1480 1479 1479 1478 1477 1476 1476 1475 1474 1473 1471 1470 1469 1469 1467 1467 1466 1465 1464 1464 1463 1462 1462 1462 1461 1461 1461 1460 1460 1460
1512 1511 1511 1510 1509 1509 1508 1507 1506 1505 1504 1503 1502 1501 1501 1500 1499 1498 1497 1496 1495 1494 1493 1492 1491 1490 1489 1488 1487 1486 1485 1484 1484 1483 1483 1482 1481 1480 1479 1479 1478 1477 1476 1476 1475 1474 1473 1472 1471 1469 1468 1467 1466 1465 1464 1464 1463 1462 1461 1461 1460 1459 1459 1459 1459 1459 1459 1458 1458
1511 1510 1509 1509 1508 1507 1506 1506 1505 1504 1503 1502 1501 1500 1499 1499 1498 1497 1496 1495 1494 1493 1492 1491 1490 1489 1488 1487 1485 1484 1483 1482 1482 1481 1481 1480 1479 1479 1478 1477 1476 1475 1475 1474 1473 1472 1471 1470 1469 1468 1467 1466 1464 1463 1462 1461 1460 1459 1459 1458 1458 1457 1457 1457 1456 1456 1456 1456 1456
1509 1509 1508 1508 1507 1506 1505 1504 1503 1503 1502 1501 1500 1499 1498 1497 1496 1495 1494 1494 1493 1491 1490 1489 1489 1487 1486 1485 1484 1483 1482 1481 1480 1479 1479 1478 1478 1477 1476 1475 1475 1474 1473 1473 1471 1470 1469 1468 1467 1466 1465 1464 1463 1461 1459 1458 1457 1456 1456 1455 1455 1454 1454 1454 1454 1454 1453 1453 1453
1508 1508 1507 1506 1505 1504 1504 1503 1502 1501 1500 1499 1499 1498 1497 1496 1495 1494 1493 1492 1491 1490 1489 1488 1487 1486 1485 1484 1482 1481 1480 1479 1478 1478 1477 1477 1476 1475 1474 1474 1473 1472 1471 1470 1469 1468 1467 1466 1464 1464 1464 1463 1462 1460 1459 1457 1455 1454 1454 1453 1453 1453 1452 1452 1452 1451 1451 1451 1451
1507 1506 1505 1505 1504 1503 1502 1501 1501 1500 1499 1498 1497 1496 1496 1494 1494 1493 1492 1491 1489 1489 1488 1487 1486 1484 1483 1482 1481 1480 1479 1478 1477 1476 1475 1475 1474 1474 1473 1472 1471 1469 1468 1467 1466 1465 1464 1463 1463 1462 1462 1462 1461 1459 1458 1456 1454 1453 1452 1452 1451 1451 1450 1449 1449 1449 1449 1449 1449
1505 1505 1504 1503 1503 1502 1501 1500 1499 1498 1498 1497 1496 1495 1494 1493 1492 1491 1490 1489 1488 1487 1486 1485 1484 1483 1482 1481 1480 1479 1478 1477 1476 1475 1474 1474 1473 1472 1471 1469 1468 1467 1466 1465 1464 1464 1463 1462 1461 1461 1460 1460 1459 1459 1457 1455 1454 1453 1452 1450 1449 1449 1448 1448 1448 1447 1447 1447 1447
1504 1503 1503 1502 1501 1500 1499 1499 1498 1497 1496 1495 1494 1494 1493 1491 1491 1490 1489 1487 1486 1485 1484 1483 1482 1481 1480 1479 1478 1477 1476 1475 1474 1474 1473 1472 1470 1469 1468 1467 1466 1465 1464 1464 1463 1462 1461 1461 1460 1459 1459 1459 1458 1457 1456 1455 1453 1452 1451 1449 1448 1447 1447 1446 1446 1446 1446 1446 1446
1503 1502 1501 1500 1499 1499 1498 1497 1496 1495 1495 1494 1493 1492 1491 1490 1489 1488 1487 1486 1484 1483 1482 1481 1480 1479 1479 1478 1477 1476 1475 1474 1473 1472 1471 1469 1468 1467 1466 1465 1464 1464 1463 1462 1461 1461 1460 1459 1459 1458 1457 1457 1456 1455 1454 1454 1452 1451 1449 1448 1447 1446 1445 1445 1445 1445 1445 1444 1444
1501 1500 1500 1499 1498 1497 1496 1496 1495 1494 1493 1492 1492 1491 1490 1489 1488 1486 1485 1484 1482 1481 1480 1479 1478 1478 1477 1476 1475 1474 1473 1472 1471 1470 1469 1467 1466 1465 1464 1463 1463 1462 1461 1460 1460 1459 1458 1457 1457 1456 1455 1454 1454 1453 1452 1451 1450 1449 1448 1447 1446 1445 1444 1444 1444 1444 1443 1443 1443
1500 1499 1499 1498 1497 1496 1495 1494 1494 1493 1492 1491 1490 1489 1488 1487 1486 1484 1483 1482 1480 1479 1478 1477 1477 1476 1475 1475 1474 1473 1471 1470 1469 1468 1467 1465 1464 1464 1463 1462 1461 1461 1460 1459 1458 1457 1456 1455 1454 1454 1453 1452 1451 1450 1449 1449 1448 1447 1446 1445 1445 1444 1444 1443 1443 1442 1442 1442 1442
1499 1498 1497 1496 1495 1494 1494 1493 1493 1492 1491 1489 1489 1487 1486 1485 1484 1483 1482 1481 1479 1478 1477 1476 1475 1474 1474 1473 1471 1470 1469 1468 1467 1466 1465 1464 1463 1462 1461 1460 1459 1459 1458 1457 1456 1454 1454 1453 1452 1451 1451 1450 1449 1449 1448 1447 1447 1446 1445 1444 1443 1443 1443 1442 1441 1441 1440 1440 1441
1498 1497 1496 1495 1494 1493 1493 1492 1491 1490 1489 1488 1487 1486 1484 1484 1483 1482 1481 1480 1478 1477 1475 1474 1474 1473 1472 1470 1469 1468 1467 1466 1465 1464 1463 1462 1461 1460 1459 1458 1457 1456 1455 1454 1454 1453 1452 1451 1450 1450 1449 1449 1448 1447 1446 1446 1445 1444 1444 1443 1442 1441 1441 1440 1439 1439 1439 1439 1439
1496 1495 1494 1494 1493 1492 1491 1490 1489 1488 1487 1486 1485 1484 1483 1482 1481 1480 1479 1478 1477 1475 1474 1473 1472 1471 1469 1468 1467 1466 1465 1464 1463 1462 1461 1460 1459 1458 1457 1456 1455 1454 1454 1453 1452 1451 1451 1450 1449 1449 1448 1447 1446 1445 1445 1444 1444 1443 1442 1441 1441 1440 1439 1438 1437 1437 1437 1437 1438
1495 1494 1493 1492 1492 1491 1489 1488 1487 1486 1485 1484 1483 1482 1481 1480 1479 1479 1477 1476 1475 1473 1472 1471 1470 1469 1467 1466 1465 1464 1463 1462 1461 1460 1459 1458 1458 1457 1456 1455 1454 1453 1453 1452 1451 1450 1449 1449 1448 1447 1447 1446 1445 1444 1444 1443 1442 1442 1441 1440 1439 1439 1438 1437 1436 1435 1435 1435 1435
1494 1493 1492 1491 1490 1489 1488 1486 1485 1484 1483 1482 1481 1480 1479 1478 1477 1476 1475 1474 1473 1472 1470 1469 1468 1467 1466 1465 1464 1463 1462 1461 1460 1459 1458 1458 1457 1455 1454 1454 1453 1452 1451 1451 1450 1449 1448 1447 1447 1446 1445 1444 1444 1443 1443 1442 1441 1440 1440 1439 1439 1438 1437 1436 1436 1435 1435 1434 1435
1492 1491 1491 1489 1488 1487 1486 1485 1484 1483 1482 1481 1480 1479 1478 1476 1475 1474 1473 1472 1471 1470 1469 1469 1468 1466 1465 1464 1464 1463 1462 1461 1460 1459 1458 1457 1456 1455 1454 1453 1452 1451 1450 1449 1449 1448 1447 1446 1445 1444 1444 1443 1442 1441 1441 1440 1439 1439 1439 1438 1437 1437 1436 1435 1435 1434 1434 1434 1434
1491 1490 1489 1488 1487 1486 1485 1484 1483 1482 1481 1480 1479 1477 1476 1474 1474 1473 1472 1471 1470 1469 1469 1468 1467 1466 1465 1464 1463 1462 1461 1460 1459 1458 1457 1456 1455 1454 1453 1452 1451 1450 1449 1448 1448 1447 1446 1445 1444 1443 1442 1441 1440 1439 1439 1438 1438 1437 1436 1436 1435 1435 1434 1434 1434 1433 1433 1433 1433
1490 1489 1488 1487 1486 1485 1484 1483 1482 1481 1480 1479 1478 1476 1475 1474 1473 1472 1471 1470 1469 1468 1467 1467 1466 1465 1464 1463 1462 1461 1459 1459 1458 1457 1456 1455 1454 1453 1452 1452 1451 1450 1449 1447 1446 1446 1445 1444 1443 1442 1441 1440 1439 1439 1438 1437 1436 1435 1435 1434 1434 1433 1433 1432 1432 1431 1431 1431 1431
1488 1487 1487 1486 1484 1484 1483 1482 1481 1480 1479 1477 1476 1475 1474 1473 1472 1471 1470 1469 1469 1467 1466 1466 1465 1464 1463 1462 1461 1459 1459 1458 1457 1456 1455 1454 1453 1453 1452 1451 1450 1449 1448 1446 1445 1444 1444 1443 1442 1441 1440 1439 1439 1438 1437 1436 1435 1434 1434 1433 1433 1432 1431 1430 1430 1430 1429 1429 1429
1487 1486 1485 1484 1484 1483 1482 1480 1479 1478 1477 1476 1475 1474 1474 1473 1472 1471 1470 1469 1468 1467 1466 1465 1464 1463 1462 1461 1460 1459 1458 1457 1456 1455 1454 1454 1453 1452 1451 1450 1449 1448 1447 1445 1444 1443 1443 1442 1441 1440 1439 1439 1438 1437 1436 1435 1434 1434 1433 1433 1432 1431 1430 1430 1429 1429 1428 1428 1427
1485 1485 1484 1483 1482 1481 1480 1479 1477 1476 1475 1474 1474 1474 1473 1472 1472 1471 1470 1469 1468 1466 1465 1465 1464 1463 1461 1460 1459 1459 1457 1456 1456 1455 1454 1453 1452 1451 1450 1449 1448 1447 1445 1444 1443 1442 1441 1441 1440 1439 1438 1438 1437 1436 1435 1434 1434 1433 1432 1432 1431 1430 1430 1429 1429 1428 1428 1427 1427
1484 1484 1483 1482 1480 1479 1478 1477 1476 1475 1474 1474 1473 1473 1472 1472 1471 1470 1469 1468 1467 1466 1465 1464 1463 1462 1461 1460 1459 1458 1457 1456 1455 1454 1453 1452 1451 1450 1449 1448 1447 1446 1444 1443 1442 1441 1440 1439 1439 1438 1437 1437 1436 1435 1434 1433 1433 1432 1432 1431 1430 1430 1429 1429 1428 1428 1427 1426 1426
1483 1482 1481 1480 1479 1477 1476 1475 1474 1474 1473 1473 1473 1472 1471 1471 1470 1469 1468 1467 1466 1465 1464 1464 1463 1462 1461 1460 1459 1458 1457 1455 1454 1453 1452 1451 1450 1449 1449 1448 1447 1445 1444 1442 1441 1440 1439 1439 1438 1437 1436 1435 1435 1434 1433 1432 1432 1431 1431 1430 1430 1429 1429 1428 1427 1426 1426 1425 1425
1481 1481 1480 1478 1477 1475 1475 1474 1474 1473 1473 1472 1472 1471 1471 1470 1469 1468 1468 1467 1466 1465 1464 1463 1462 1461 1460 1459 1458 1457 1456 1455 1454 1453 1451 1450 1449 1449 1448 1447 1446 1445 1443 1441 1440 1439 1439 1438 1437 1436 1435 1434 1434 1433 1432 1431 1430 1430 1429 1429 1428 1428 1427 1426 1426 1425 1424 1424 1424
1479 1479 1478 1476 1475 1474 1474 1473 1473 1472 1472 1471 1471 1470 1470 1469 1468 1468 1467 1466 1465 1464 1463 1462 1461 1460 1459 1459 1458 1456 1455 1454 1453 1452 1450 1449 1449 1448 1447 1446 1445 1444 1442 1440 1439 1439 1438 1437 1436 1435 1434 1433 1432 1431 1430 1429 1429 1428 1427 1427 1426 1426 1425 1425 1424 1424 1423 1423 1422
1477 1476 1475 1474 1474 1474 1473 1473 1472 1472 1471 1471 1470 1469 1469 1468 1467 1467 1466 1465 1464 1463 1462 1461 1460 1459 1458 1458 1457 1455 1454 1453 1452 1450 1449 1448 1447 1447 1446 1445 1444 1443 1440 1439 1439 1438 1437 1436 1435 1434 1433 1432 1431 1430 1429 1428 1427 1426 1425 1424 1424 1424 1424 1423 1422 1422 1421 1421 1420
1475 1474 1474 1473 1473 1473 1472 1472 1472 1471 1471 1470 1469 1469 1468 1467 1466 1465 1465 1464 1463 1462 1461 1460 1459 1458 1457 1456 1455 1454 1453 1452 1450 1449 1448 1447 1446 1446 1445 1444 1444 1442 1439 1439 1438 1437 1436 1434 1434 1432 1431 1430 1429 1428 1427 1426 1425 1424 1424 1423 1423 1422 1422 1421 1421 1420 1419 1419 1418
1473 1473 1472 1472 1472 1472 1472 1472 1472 1471 1470 1470 1469 1468 1467 1466 1465 1465 1464 1463 1462 1461 1460 1459 1458 1457 1456 1455 1454 1453 1452 1450 1449 1448 1447 1446 1445 1444 1444 1443 1443 1441 1439 1438 1436 1435 1434 1433 1432 1431 1429 1428 1427 1426 1425 1424 1423 1423 1422 1421 1421 1420 1420 1419 1419 1418 1418 1417 1416
1472 1472 1471 1471 1471 1472 1472 1472 1471 1470 1470 1469 1468 1467 1466 1466 1465 1464 1463 1462 1461 1460 1459 1458 1457 1456 1455 1454 1453 1452 1451 1449 1448 1447 1446 1445 1444 1443 1442 1442 1442 1440 1438 1436 1434 1434 1432 1431 1430 1429 1428 1427 1425 1424 1424 1423 1422 1421 1420 1420 1419 1419 1418 1418 1417 1416 1416 1415 1414
1471 1471 1471 1471 1471 1471 1471 1471 1470 1469 1469 1468 1467 1466 1466 1465 1464 1463 1462 1461 1460 1459 1458 1457 1456 1455 1454 1453 1452 1451 1449 1448 1447 1446 1445 1444 1443 1442 1441 1440 1440 1439 1437 1435 1433 1432 1431 1429 1429 1427 1426 1425 1424 1423 1422 1421 1420 1419 1419 1418 1417 1417 1416 1416 1415 1414 1414 1413 1412
1471 1471 1470 1470 1471 1471 1470 1470 1469 1469 1468 1467 1467 1466 1465 1464 1464 1462 1461 1460 1459 1458 1457 1456 1455 1454 1453 1452 1451 1450 1449 1447 1446 1445 1444 1442 1442 1441 1440 1439 1438 1437 1436 1434 1432 1430 1429 1428 1427 1425 1424 1423 1422 1421 1420 1419 1418 1418 1417 1416 1415 1415 1414 1414 1413 1412 1412 1411 1410
1471 1470 1470 1470 1470 1470 1469 1469 1469 1468 1468 1467 1466 1465 1465 1464 1463 1461 1460 1459 1458 1457 1456 1455 1454 1453 1452 1451 1450 1449 1447 1446 1445 1444 1442 1441 1440 1439 1438 1437 1436 1435 1434 1433 1431 1429 1428 1426 1425 1424 1423 1422 1421 1419 1419 1418 1417 1416 1415 1414 1414 1413 1412 1411 1410 1409 1409 1408 1407
1470 1470 1470 1470 1470 1469 1469 1469 1468 1468 1467 1467 1466 1465 1464 1463 1462 1460 1459 1459 1457 1456 1455 1454 1453 1452 1451 1450 1449 1447 1446 1445 1444 1443 1441 1440 1439 1438 1436 1435 1434 1433 1432 1431 1429 1428 1426 1425 1424 1423 1422 1421 1419 1418 1417 1416 1415 1414 1413 1412 1411 1410 1409 1409 1408 1407 1406 1405 1405
1470 1470 1470 1470 1470 1469 1469 1469 1468 1467 1467 1466 1465 1464 1463 1462 1461 1459 1459 1457 1456 1455 1454 1453 1452 1451 1450 1449 1447 1446 1445 1444 1443 1442 1440 1439 1438 1436 1435 1434 1432 1431 1430 1429 1429 1427 1425 1424 1423 1422 1421 1419 1418 1417 1416 1415 1414 1412 1411 1410 1409 1409 1408 1407 1406 1405 1404 1404 1403
1470 1470 1470 1470 1470 1469 1469 1468 1467 1467 1466 1465 1464 1463 1462 1461 1460 1459 1458 1457 1455 1454 1453 1452 1451 1450 1449 1447 1446 1445 1444 1442 1441 1440 1439 1438 1436 1435 1433 1432 1431 1430 1429 1429 1428 1426 1424 1423 1422 1421 1419 1419 1417 1416 1414 1413 1412 1411 1409 1409 1408 1407 1406 1405 1404 1403 1402 1402 1401